Location: Newark
(25.5428°S, 54.5819°W)
Time: 22:34:53
(UTC+00:00)

Hubble Space Telescope - Visible Passes

Search period start: 22 October 2019 00:00
Search period end: 01 November 2019 00:00
Orbit: 536 x 540 km, 28.5° (Epoch: 21 October)

Date Brightness Start Highest point End Pass type
(mag) Time Alt. Az. Time Alt. Az. Time Alt. Az.
22 Oct 1.5 22:38:20 10° NW 22:42:10 36° NNE 22:44:24 20° ENE visible
23 Oct 3.5 00:19:05 10° W 00:19:47 14° W 00:19:47 14° W visible
23 Oct 1.2 22:27:34 10° NW 22:31:33 46° NNE 22:34:57 14° E visible
24 Oct 2.9 00:08:33 10° W 00:10:19 24° W 00:10:19 24° W visible
24 Oct 0.9 22:16:52 10° WNW 22:20:58 58° NNE 22:25:05 10° E visible
24 Oct 2.2 23:58:03 10° W 00:00:44 37° WSW 00:00:44 37° WSW visible
25 Oct 0.8 22:06:14 10° WNW 22:10:24 72° NNE 22:14:33 10° E visible
25 Oct 1.5 23:47:33 10° W 23:51:02 51° SW 23:51:02 51° SW visible
26 Oct 1.2 23:37:03 10° W 23:41:10 56° S 23:41:14 56° S visible
27 Oct 1.2 23:26:32 10° W 23:30:39 56° S 23:31:22 48° SE visible
28 Oct 1.2 23:16:01 10° WSW 23:20:08 57° S 23:21:26 38° ESE visible
29 Oct 1.1 23:05:29 10° WSW 23:09:37 59° S 23:11:28 30° ESE visible
30 Oct 4.0 00:46:44 10° W 00:46:48 10° W 00:46:48 10° W visible
30 Oct 1.0 22:54:57 10° WSW 22:59:06 64° S 23:01:28 24° E visible
31 Oct 3.7 00:36:13 10° W 00:36:48 14° W 00:36:48 14° W visible
31 Oct 0.9 22:44:23 10° WSW 22:48:34 71° S 22:51:28 19° E visible
